Regional Weather Roundup
Issued by NWS New Orleans/Baton Rouge, LA

Home | Current Version | Previous Version | Text Only | Print | Product List | Glossary On
Versions: 1 2 3 4 5 6 7 8 9 10 11 12 13 14 15 16 17 18 19 20 21 22 23 24 25 26 27 28 29 30 31 32 33 34 35 36 37 38 39 40 41 42 43 44 45 46 47 48 49 50
870
ASUS44 KLIX 220005
RWRLIX
NEW ORLEANS REGIONAL WEATHER ROUNDUP
NATIONAL WEATHER SERVICE NEW ORLEANS LA
700 PM CDT THU AUG 21 2014

NOTE: "FAIR" INDICATES FEW OR NO CLOUDS BELOW 12,000 FEET WITH NO
      SIGNIFICANT WEATHER AND/OR OBSTRUCTIONS TO VISIBILITY.
      SKY/WX - SKY CONDITION AND SIGNIFICANT WEATHER.
      TMP - AIR TEMPERATURE.     DP    - DEWPOINT TEMPERATURE.
      RH  - RELATIVE HUMIDITY.   PRES  - PRESSURE.
      HI  - HEAT INDEX.          WCI   - WIND CHILL INDEX.

*  THESE STATIONS ARE NOT NWS OR FAA STATIONS AND ARE NOT UNDER
   NWS QUALITY CONTROL.

LAZ038-040-048-061>063-065>067-069-220100-
SOUTHEAST LOUISIANA

CITY           SKY/WX    TMP DP  RH WIND       PRES   REMARKS
N.O. AUDUBON     N/A     81  75  82 MISG        N/A
6HR MIN TEMP:  79; 6HR MAX TEMP:  82;

N.O. INTL ARPT CLOUDY    80  74  81 W5        30.10S
6HR MIN TEMP:  78; 6HR MAX TEMP:  94; 6HR PCP:  0.11;

N.O. LAKEFRONT CLOUDY    83  74  74 W9        30.10F
6HR MIN TEMP:  83; 6HR MAX TEMP:  92;

N.O. DOWNTOWN*   N/A     84  72  65 CALM      30.11S
6HR MIN TEMP:  84; 6HR MAX TEMP:  93; 6HR PCP:  0.01;

SLIDELL        PTCLDY    85  75  72 CALM      30.09S
6HR MIN TEMP:  85; 6HR MAX TEMP:  95;

BATON ROUGE    CLOUDY    79  75  87 CALM      30.10F
6HR MIN TEMP:  76; 6HR MAX TEMP:  95; 6HR PCP:  0.17;

BOOTHVILLE     MOCLDY    87  75  67 W6        30.11S HX  96
6HR MIN TEMP:  85; 6HR MAX TEMP:  90;

BELLE CHASSE   CLOUDY    81  74  79 CALM      30.10S
6HR MIN TEMP:  77; 6HR MAX TEMP:  94;

BOGALUSA*        N/A     85  74  68 CALM      30.11R
6HR MIN TEMP:  85; 6HR MAX TEMP:  96;

GALLIANO*      NOT AVBL
NEW ROADS*       N/A     78  74  87 CALM      30.10F
6HR MIN TEMP:  76; 6HR MAX TEMP:  90; 6HR PCP:  0.03;

GONZALES*        N/A     78  78 100 S3        30.10F
6HR MIN TEMP:  78; 6HR MAX TEMP:  93; 6HR PCP:  0.01;

HAMMOND*       CLOUDY    77  72  83 CALM      30.12R
HOUMA*         PTCLDY    81  73  78 CALM      30.10
PORT FOURCHON* CLEAR     88  75  66 SW6       30.11F HX  97

$$

MSZ070-080>082-220100-
SOUTHERN MISSISSIPPI

CITY           SKY/WX    TMP DP  RH WIND       PRES   REMARKS
MCCOMB         CLOUDY    83  74  74 CALM      30.11F
6HR MIN TEMP:  81; 6HR MAX TEMP:  94; 6HR PCP:  0.22;

GULFPORT       CLEAR     88  75  65 S6        30.09S HX  97
6HR MIN TEMP:  88; 6HR MAX TEMP:  93;

BILOXI         PTCLDY    88  75  65 SW9       30.09S HX  97
6HR MIN TEMP:  88; 6HR MAX TEMP:  93;

PASCAGOULA     PTCLDY    85  76  74 SW5       30.09S
6HR MIN TEMP:  85; 6HR MAX TEMP:  94;

STENNIS ARPT*  PTCLDY   N/A N/A N/A SW7       30.09F

$$

COASTAL OBSERVATIONS
LAKE AND NEARSHORE STATIONS

STATION/POSITION TIME  TEMP    WIND        PRES    WAVE
                       AIR SEA DIR/SP/G            HT/PER
                 (UTC) (F)     (DEG/KT/KT) (MB)    (FT/S)
PASCAGOULA       0000   88     220/ 10/ 12 1018.7
WAVELAND YACHT   0000   88     200/  6/  9 1018.2
GRAND ISLE       0000   86 90  350/  6/  9 1020.2
SOUTHWEST PASS   0000   88 89  240/  4/  4 1019.7
NEW CANAL        0000   84 85  240/  4/  5 1019.7
SHELL BEACH      0000   83 83  240/  7/  9 1019.1

OFFSHORE STATIONS

STATION/POSITION TIME  TEMP    WIND        PRES    WAVE
                       AIR SEA DIR/SP/G            HT/PER
                 (UTC) (F)     (DEG/KT/KT) (MB)    (FT/S)

$$




USA.gov is the U.S. government's official web portal to all federal, state and local government web resources and services.